Tracking 28091 objects as of 29-Sep-2023
HD Live streaming from Space Station
objects crossing your sky now

NATO 3C

Track NATO 3C now!
NATO 3C is classified as:


NORAD ID: 11115
Int'l Code: 1978-106A
Perigee: 36,290.1 km
Apogee: 36,316.4 km
Inclination: 11.0 °
Period: 1,462.2 minutes
Semi major axis: 42674 km
RCS: 7.0899 m2 (large)
Launch date: November 19, 1978
Source: North Atlantic Treaty Organization (NATO)
Launch site: AIR FORCE EASTERN TEST RANGE (AFETR)
Your satellite tracking list
Your tracking list is empty




NASA's NSSDC Master Catalog

Two Line Element Set (TLE):
1 11115U 78106A   23272.21810097 -.00000013  00000-0  00000+0 0  9999
2 11115  10.9728 321.7569 0003084 255.4399 285.3887  0.98481242645568
Source of the keplerian elements: AFSPC